When you browse on this site, cookies collect data to enhance your experience and personalize the content and advertising you see.
Visit our Privacy Policy to learn more. By continuing to use the site, you agree to this use of cookies and data.
  • In United Kingdom
  • List of Countries
  • For 7 days
  • Water Temperature
  • Satellite Maps
  • Weather Map
  • Weather Widgets
  • user-avatar
    Login

    Hourly Weather Natitingou

    Today, 22 July, Monday

    Time Temperature Precipitation Wind Pressure Humidity
    00:00 +23°C° 0 mm 2 mps 718 mmHg 94%
    01:00 +23°C° 0 mm 2 mps 718 mmHg 95%
    02:00 +23°C° 0 mm 2 mps 717 mmHg 95%
    03:00 +23°C° 0 mm 2 mps 717 mmHg 95%
    04:00 +23°C° 0 mm 2 mps 717 mmHg 96%
    05:00 +23°C° 0 mm 2 mps 718 mmHg 96%
    06:00 +23°C° 0 mm 2 mps 718 mmHg 96%
    07:00 +24°C° 0 mm 3 mps 718 mmHg 91%
    08:00 +25°C° 0 mm 3 mps 719 mmHg 85%
    09:00 +27°C° 0 mm 4 mps 719 mmHg 79%
    10:00 +28°C° 0.1 mm 3 mps 719 mmHg 75%
    11:00 +29°C° 0.1 mm 3 mps 719 mmHg 71%
    12:00 +30°C° 0.1 mm 3 mps 719 mmHg 67%
    13:00 +30°C° 0.3 mm 2 mps 718 mmHg 66%
    14:00 +30°C° 0.3 mm 2 mps 717 mmHg 66%
    15:00 +30°C° 0.3 mm 2 mps 717 mmHg 65%
    16:00 +28°C° 2.1 mm 2 mps 716 mmHg 74%
    17:00 +26°C° 2.1 mm 1 mps 716 mmHg 83%
    18:00 +25°C° 2.1 mm 1 mps 716 mmHg 92%
    19:00 +24°C° 0 mm 1 mps 716 mmHg 92%
    20:00 +24°C° 0 mm 1 mps 717 mmHg 92%
    21:00 +24°C° 0 mm 1 mps 717 mmHg 92%
    22:00 +24°C° 0.3 mm 1 mps 717 mmHg 92%
    23:00 +24°C° 0.3 mm 1 mps 717 mmHg 91%

    Tomorrow, 23 July, Tuesday

    Time Temperature Precipitation Wind Pressure Humidity
    00:00 +24°C° 0.3 mm 1 mps 717 mmHg 90%
    01:00 +24°C° 1 mm 1 mps 717 mmHg 91%
    02:00 +24°C° 1 mm 1 mps 717 mmHg 93%
    03:00 +23°C° 1 mm 2 mps 716 mmHg 94%
    04:00 +23°C° 0.3 mm 2 mps 717 mmHg 95%
    05:00 +23°C° 0.3 mm 2 mps 717 mmHg 95%
    06:00 +22°C° 0.3 mm 3 mps 717 mmHg 96%
    07:00 +24°C° 0.4 mm 3 mps 718 mmHg 94%
    08:00 +24°C° 0.4 mm 3 mps 718 mmHg 92%
    09:00 +25°C° 0.4 mm 3 mps 718 mmHg 91%
    10:00 +25°C° 0.9 mm 3 mps 718 mmHg 91%
    11:00 +24°C° 0.9 mm 3 mps 718 mmHg 91%
    12:00 +24°C° 0.9 mm 3 mps 718 mmHg 92%
    13:00 +24°C° 0.5 mm 3 mps 718 mmHg 92%
    14:00 +23°C° 0.5 mm 4 mps 717 mmHg 93%
    15:00 +22°C° 0.5 mm 4 mps 716 mmHg 94%
    16:00 +22°C° 0.1 mm 3 mps 717 mmHg 94%
    17:00 +22°C° 0.1 mm 3 mps 717 mmHg 94%
    18:00 +22°C° 0.1 mm 3 mps 717 mmHg 94%
    19:00 +23°C° 0 mm 2 mps 717 mmHg 96%
    20:00 +21°C° 0 mm 2 mps 718 mmHg 97%
    21:00 +22°C° 0 mm 1 mps 718 mmHg 98%
    22:00 +22°C° 0 mm 1 mps 718 mmHg 98%
    23:00 +21°C° 0 mm 2 mps 718 mmHg 97%

    Day after tomorrow, 24 July, Wednesday

    Time Temperature Precipitation Wind Pressure Humidity
    00:00 +21°C° 0 mm 2 mps 718 mmHg 97%
    01:00 +22°C° 0 mm 1 mps 718 mmHg 97%
    02:00 +22°C° 0 mm 1 mps 717 mmHg 97%
    03:00 +22°C° 0 mm 1 mps 717 mmHg 97%
    04:00 +22°C° 0 mm 1 mps 717 mmHg 96%
    05:00 +22°C° 0 mm 1 mps 718 mmHg 96%
    06:00 +22°C° 0 mm 1 mps 718 mmHg 96%
    07:00 +23°C° 0.1 mm 2 mps 719 mmHg 94%
    08:00 +22°C° 0.1 mm 3 mps 719 mmHg 92%
    09:00 +23°C° 0.1 mm 4 mps 720 mmHg 90%
    10:00 +24°C° 0.3 mm 3 mps 720 mmHg 90%
    11:00 +24°C° 0.3 mm 3 mps 719 mmHg 90%
    12:00 +24°C° 0.3 mm 3 mps 719 mmHg 89%
    13:00 +25°C° 0.1 mm 3 mps 719 mmHg 86%
    14:00 +25°C° 0.1 mm 3 mps 718 mmHg 83%
    15:00 +26°C° 0.1 mm 3 mps 717 mmHg 79%
    16:00 +25°C° 0 mm 2 mps 717 mmHg 82%
    17:00 +25°C° 0 mm 2 mps 717 mmHg 85%
    18:00 +24°C° 0 mm 2 mps 717 mmHg 88%
    19:00 +23°C° 0 mm 1 mps 717 mmHg 91%
    20:00 +23°C° 0 mm 1 mps 718 mmHg 93%
    21:00 +22°C° 0 mm 1 mps 718 mmHg 95%
    22:00 +22°C° 0 mm 1 mps 718 mmHg 94%
    23:00 +22°C° 0 mm 1 mps 718 mmHg 93%

    25 July, Thursday

    Time Temperature Precipitation Wind Pressure Humidity
    00:00 +22°C° 0 mm 1 mps 718 mmHg 92%
    01:00 +22°C° 0 mm 1 mps 718 mmHg 93%
    02:00 +21°C° 0 mm 1 mps 718 mmHg 94%
    03:00 +21°C° 0 mm 1 mps 717 mmHg 94%
    04:00 +21°C° 0 mm 1 mps 718 mmHg 94%
    05:00 +21°C° 0 mm 1 mps 718 mmHg 94%
    06:00 +21°C° 0 mm 1 mps 718 mmHg 94%
    07:00 +23°C° 0 mm 1 mps 719 mmHg 87%
    08:00 +25°C° 0 mm 2 mps 719 mmHg 80%
    09:00 +27°C° 0 mm 2 mps 720 mmHg 73%
    10:00 +28°C° 0 mm 2 mps 719 mmHg 69%
    11:00 +30°C° 0 mm 2 mps 719 mmHg 65%
    12:00 +31°C° 0 mm 2 mps 718 mmHg 61%
    13:00 +31°C° 0.1 mm 2 mps 718 mmHg 62%
    14:00 +31°C° 0.1 mm 2 mps 717 mmHg 62%
    15:00 +31°C° 0.1 mm 2 mps 716 mmHg 62%
    16:00 +30°C° 0.3 mm 2 mps 716 mmHg 68%
    17:00 +29°C° 0.3 mm 1 mps 716 mmHg 73%
    18:00 +27°C° 0.3 mm 1 mps 716 mmHg 79%
    19:00 +27°C° 0 mm 1 mps 716 mmHg 82%
    20:00 +26°C° 0 mm 1 mps 717 mmHg 86%
    21:00 +25°C° 0 mm 1 mps 717 mmHg 89%
    22:00 +25°C° 0 mm 1 mps 717 mmHg 90%
    23:00 +24°C° 0 mm 1 mps 717 mmHg 91%

    26 July, Friday

    Time Temperature Precipitation Wind Pressure Humidity
    00:00 +24°C° 0 mm 1 mps 717 mmHg 92%
    01:00 +24°C° 0.3 mm 1 mps 717 mmHg 93%
    02:00 +24°C° 0.3 mm 1 mps 717 mmHg 94%
    03:00 +23°C° 0.3 mm 1 mps 717 mmHg 95%
    04:00 +23°C° 1.4 mm 2 mps 717 mmHg 96%
    05:00 +23°C° 1.4 mm 2 mps 717 mmHg 97%
    06:00 +23°C° 1.4 mm 2 mps 718 mmHg 98%
    07:00 +23°C° 1.3 mm 2 mps 718 mmHg 97%
    08:00 +23°C° 1.3 mm 2 mps 719 mmHg 96%
    09:00 +24°C° 1.3 mm 2 mps 720 mmHg 95%
    10:00 +24°C° 1.5 mm 2 mps 719 mmHg 94%
    11:00 +24°C° 1.5 mm 2 mps 719 mmHg 93%
    12:00 +25°C° 1.5 mm 1 mps 718 mmHg 92%
    13:00 +25°C° 0 mm 2 mps 718 mmHg 89%
    14:00 +26°C° 0 mm 2 mps 717 mmHg 86%
    15:00 +27°C° 0 mm 2 mps 717 mmHg 82%
    16:00 +27°C° 0 mm 2 mps 717 mmHg 85%
    17:00 +26°C° 0 mm 2 mps 716 mmHg 88%
    18:00 +25°C° 0 mm 2 mps 716 mmHg 90%
    19:00 +25°C° 0 mm 2 mps 717 mmHg 92%
    20:00 +24°C° 0 mm 1 mps 717 mmHg 94%
    21:00 +24°C° 0 mm 1 mps 718 mmHg 96%
    22:00 +24°C° 0 mm 1 mps 718 mmHg 97%
    23:00 +23°C° 0 mm 1 mps 718 mmHg 97%

    27 July, Saturday

    Time Temperature Precipitation Wind Pressure Humidity
    00:00 +23°C° 0 mm 1 mps 718 mmHg 97%
    01:00 +23°C° 0 mm 1 mps 718 mmHg 97%
    02:00 +23°C° 0 mm 1 mps 718 mmHg 97%
    03:00 +23°C° 0 mm 1 mps 718 mmHg 96%
    04:00 +23°C° 0 mm 1 mps 718 mmHg 96%
    05:00 +23°C° 0 mm 1 mps 718 mmHg 96%
    06:00 +23°C° 0 mm 1 mps 718 mmHg 96%
    07:00 +24°C° 0.1 mm 2 mps 719 mmHg 92%
    08:00 +25°C° 0.1 mm 3 mps 719 mmHg 87%
    09:00 +26°C° 0.1 mm 3 mps 720 mmHg 82%
    10:00 +27°C° 0.4 mm 3 mps 719 mmHg 79%
    11:00 +28°C° 0.4 mm 3 mps 719 mmHg 76%
    12:00 +29°C° 0.4 mm 3 mps 719 mmHg 73%
    13:00 +28°C° 1.1 mm 3 mps 718 mmHg 76%
    14:00 +28°C° 1.1 mm 3 mps 717 mmHg 79%
    15:00 +27°C° 1.1 mm 3 mps 717 mmHg 82%
    16:00 +27°C° 0 mm 3 mps 717 mmHg 84%
    17:00 +26°C° 0 mm 3 mps 716 mmHg 87%
    18:00 +25°C° 0 mm 3 mps 716 mmHg 89%
    19:00 +24°C° 0 mm 2 mps 717 mmHg 92%
    20:00 +24°C° 0 mm 2 mps 717 mmHg 94%
    21:00 +23°C° 0 mm 1 mps 718 mmHg 97%
    22:00 +23°C° 0 mm 2 mps 718 mmHg 96%
    23:00 +23°C° 0 mm 2 mps 718 mmHg 96%
    Show more